KB7YYZ Weather Reports


Display with metric or nautical units.
time (UTC)temp
F
wind
direction
speed
MPH
gust
MPH
rain 1hr
in
rain 24hr
in
rain mn
in
humidity
%
barometer
mb
20221203193538 60 45 2.0 4.0 0.08 0.19 0.00 61 1023.4
20221203193035 60 45 1.0 1.0 0.08 0.19 0.00 60 1023.4
20221203192535 60 90 0.0 2.0 0.05 0.16 0.00 60 1023.4
20221203192035 60 135 0.0 1.0 0.05 0.16 0.00 60 1023.4
20221203191538 60 338 0.0 1.0 0.05 0.16 0.00 60 1023.7
20221203191035 60 315 0.0 1.0 0.08 0.16 0.00 60 1023.7
20221203190535 60 23 1.0 1.0 0.08 0.16 0.00 60 1023.7
20221203190035 60 68 1.0 2.0 0.05 0.13 0.00 60 1023.7
20221203185535 60 113 2.0 2.0 0.05 0.13 0.00 60 1024.1
20221203185035 60 90 1.0 3.0 0.05 0.13 0.00 60 1024.1
20221203184535 60 45 1.0 3.0 0.05 0.13 0.00 60 1024.1
20221203184038 60 68 2.0 1.0 0.02 0.11 0.00 60 1024.1
20221203183535 60 135 3.0 6.0 0.02 0.11 0.00 60 1023.9
20221203183035 60 158 4.0 7.0 0.02 0.11 0.00 61 1023.9
20221203182539 60 158 4.0 7.0 0.02 0.11 0.00 61 1023.9
20221203182035 61 180 4.0 5.0 0.05 0.11 0.00 61 1023.9
20221203181538 60 135 4.0 6.0 0.05 0.11 0.00 60 1023.9
20221203181038 61 225 4.0 6.0 0.02 0.08 0.00 60 1023.8
20221203180538 61 225 4.0 6.0 0.02 0.08 0.00 60 1023.8
20221203180038 61 180 4.0 6.0 0.02 0.08 0.00 60 1023.8
20221203175535 61 180 4.0 6.0 0.05 0.08 0.00 60 1024.1
20221203175038 61 113 6.0 9.0 0.05 0.08 0.00 60 1024.1
20221203174535 60 135 7.0 13.0 0.05 0.08 0.00 60 1024.1
20221203174035 60 135 7.0 13.0 0.08 0.08 0.00 60 1024.1
20221203173535 60 113 6.0 9.0 0.08 0.08 0.00 60 1024.2
20221203173036 59 135 7.0 9.0 0.08 0.08 0.00 60 1024.2
20221203172539 59 90 7.0 13.0 0.08 0.08 0.00 60 1024.2
20221203172038 58 113 7.0 11.0 0.05 0.05 0.00 60 1024.2
20221203171535 58 113 8.0 9.0 0.05 0.05 0.00 60 1024.5
20221203171035 57 68 7.0 13.0 0.05 0.05 0.00 60 1024.5
20221203170535 56 113 6.0 8.0 0.05 0.05 0.00 60 1024.5
20221203170038 56 113 5.0 7.0 0.05 0.05 0.00 59 1024.5
20221203165538 56 135 5.0 6.0 0.02 0.02 0.00 59 1023.9
20221203165035 56 113 4.0 6.0 0.02 0.02 0.00 59 1023.9
20221203164535 57 90 4.0 6.0 0.02 0.02 0.00 59 1023.9
20221203164038 58 113 3.0 5.0 0.00 0.00 0.00 58 1023.9
20221203163538 58 113 2.0 3.0 0.00 0.00 0.00 58 1022.5
20221203163035 59 135 2.0 3.0 0.00 0.00 0.00 56 1022.5
20221203162536 60 135 2.0 2.0 0.00 0.00 0.00 55 1022.5
20221203162035 60 135 1.0 2.0 0.00 0.00 0.00 53 1022.5
20221203161535 60 135 0.0 2.0 0.00 0.00 0.00 51 1022.3
20221203161035 61 135 1.0 1.0 0.00 0.00 0.00 51 1022.3
20221203160538 60 135 1.0 2.0 0.00 0.00 0.00 51 1022.3
20221203160038 60 90 1.0 2.0 0.00 0.00 0.00 51 1022.3
20221203155538 60 90 1.0 1.0 0.00 0.00 0.00 51 1021.9
20221203155035 59 68 2.0 3.0 0.00 0.00 0.00 51 1021.9
20221203154538 60 45 2.0 3.0 0.00 0.00 0.00 51 1021.9
20221203154038 59 45 2.0 5.0 0.00 0.00 0.00 50 1021.9
20221203153538 59 68 2.0 3.0 0.00 0.00 0.00 48 1022.2
20221203153038 59 90 2.0 2.0 0.00 0.00 0.00 48 1022.2
20221203152536 58 68 2.0 2.0 0.00 0.00 0.00 48 1022.2
20221203152035 58 45 2.0 4.0 0.00 0.00 0.00 48 1022.2
20221203151538 58 68 2.0 4.0 0.00 0.00 0.00 48 1022.1
20221203151035 58 68 2.0 2.0 0.00 0.00 0.00 48 1022.1
20221203150538 58 23 2.0 3.0 0.00 0.00 0.00 48 1022.1
20221203150038 57 68 2.0 4.0 0.00 0.00 0.00 48 1022.1
20221203145538 57 45 3.0 4.0 0.00 0.00 0.00 48 1021.7
20221203145038 57 68 3.0 4.0 0.00 0.00 0.00 48 1021.7
20221203144538 57 68 3.0 3.0 0.00 0.00 0.00 48 1021.7
20221203144035 57 68 3.0 4.0 0.00 0.00 0.00 48 1021.7
20221203143535 56 68 3.0 4.0 0.00 0.00 0.00 48 1021.9
20221203143035 56 90 2.0 4.0 0.00 0.00 0.00 49 1022.0
20221203142535 56 68 2.0 4.0 0.00 0.00 0.00 49 1022.0
20221203142039 56 45 2.0 2.0 0.00 0.00 0.00 49 1022.0
20221203141535 55 68 2.0 4.0 0.00 0.00 0.00 49 1021.9
20221203141035 55 45 2.0 4.0 0.00 0.00 0.00 49 1021.9
20221203140538 55 68 2.0 3.0 0.00 0.00 0.00 48 1021.9
20221203140035 55 45 2.0 3.0 0.00 0.00 0.00 48 1021.9
20221203135538 55 45 2.0 3.0 0.00 0.00 0.00 49 1022.1
20221203135038 55 68 2.0 3.0 0.00 0.00 0.00 48 1022.1
20221203134538 55 45 2.0 3.0 0.00 0.00 0.00 48 1022.1
20221203134035 55 45 2.0 2.0 0.00 0.00 0.00 48 1022.1
20221203133535 54 68 2.0 3.0 0.00 0.00 0.00 48 1022.0
20221203133035 54 45 2.0 4.0 0.00 0.00 0.00 48 1022.0
20221203132538 54 45 2.0 4.0 0.00 0.00 0.00 48 1022.0
20221203132036 54 45 1.0 3.0 0.00 0.00 0.00 47 1022.0
20221203131538 54 68 1.0 2.0 0.00 0.00 0.00 47 1021.5
20221203131038 54 68 1.0 1.0 0.00 0.00 0.00 46 1021.5
20221203130538 54 68 1.0 1.0 0.00 0.00 0.00 46 1021.6
20221203130035 54 68 2.0 2.0 0.00 0.00 0.00 46 1021.6
20221203125535 55 68 2.0 4.0 0.00 0.00 0.00 46 1021.3
20221203125035 55 45 2.0 4.0 0.00 0.00 0.00 46 1021.3
20221203124538 55 68 2.0 4.0 0.00 0.00 0.00 46 1021.4
20221203124035 55 68 2.0 2.0 0.00 0.00 0.00 45 1021.4
20221203123538 55 68 2.0 2.0 0.00 0.00 0.00 45 1021.6
20221203123038 55 68 1.0 2.0 0.00 0.00 0.00 44 1021.6
20221203122535 55 45 1.0 3.0 0.00 0.00 0.00 44 1021.6
20221203122036 55 68 2.0 3.0 0.00 0.00 0.00 44 1021.6
20221203121535 55 68 2.0 3.0 0.00 0.00 0.00 44 1021.5
20221203121035 55 68 2.0 2.0 0.00 0.00 0.00 44 1021.5
20221203120535 55 68 2.0 4.0 0.00 0.00 0.00 44 1021.5
20221203120038 55 68 2.0 4.0 0.00 0.00 0.00 44 1021.6
20221203115535 54 68 2.0 3.0 0.00 0.00 0.00 44 1021.5
20221203115038 54 45 2.0 3.0 0.00 0.00 0.00 44 1021.5
20221203114538 54 68 1.0 3.0 0.00 0.00 0.00 44 1021.5
20221203114038 54 68 1.0 2.0 0.00 0.00 0.00 44 1021.6
20221203113538 54 68 1.0 2.0 0.00 0.00 0.00 44 1021.9
20221203113035 54 90 2.0 3.0 0.00 0.00 0.00 44 1021.9
20221203112538 54 45 2.0 3.0 0.00 0.00 0.00 44 1021.9
20221203112035 54 113 2.0 3.0 0.00 0.00 0.00 44 1021.9
20221203111535 54 68 2.0 4.0 0.00 0.00 0.00 44 1022.0
20221203111035 54 23 2.0 5.0 0.00 0.00 0.00 44 1022.0
20221203110535 54 68 2.0 5.0 0.00 0.00 0.00 44 1022.1
20221203110038 54 23 2.0 3.0 0.00 0.00 0.00 44 1022.1
20221203105538 54 68 2.0 3.0 0.00 0.00 0.00 44 1022.0
20221203105038 54 68 2.0 3.0 0.00 0.00 0.00 43 1022.0
20221203104536 54 113 2.0 2.0 0.00 0.00 0.00 43 1022.0
20221203104038 54 68 2.0 4.0 0.00 0.00 0.00 43 1022.0
20221203103535 54 45 2.0 4.0 0.00 0.00 0.00 43 1022.0
20221203103035 54 45 2.0 3.0 0.00 0.00 0.00 43 1022.0
20221203102538 54 68 2.0 3.0 0.00 0.00 0.00 43 1022.1
20221203102035 54 68 2.0 3.0 0.00 0.00 0.00 43 1022.1
20221203101538 54 68 2.0 4.0 0.00 0.00 0.00 43 1022.3
20221203101035 55 45 2.0 2.0 0.00 0.00 0.00 44 1022.4
20221203100538 55 45 2.0 4.0 0.00 0.00 0.00 44 1022.4
20221203100038 54 68 2.0 4.0 0.00 0.00 0.00 44 1022.4
20221203095535 54 113 1.0 2.0 0.00 0.00 0.00 44 1022.6
20221203095035 54 68 1.0 2.0 0.00 0.00 0.00 44 1022.6
20221203094538 54 45 2.0 3.0 0.00 0.00 0.00 45 1022.6
20221203094035 54 68 1.0 3.0 0.00 0.00 0.00 45 1022.6
20221203093535 54 68 1.0 2.0 0.00 0.00 0.00 46 1022.4
20221203093038 53 45 2.0 2.0 0.00 0.00 0.00 47 1022.4
20221203092538 53 68 2.0 2.0 0.00 0.00 0.00 47 1022.4
20221203092035 53 68 2.0 3.0 0.00 0.00 0.00 48 1022.5
20221203091535 53 68 1.0 2.0 0.00 0.00 0.00 48 1022.5
20221203091038 52 68 1.0 2.0 0.00 0.00 0.00 48 1022.5
20221203090538 52 68 1.0 2.0 0.00 0.00 0.00 48 1022.5
20221203090038 52 68 1.0 2.0 0.00 0.00 0.00 47 1022.6
20221203085538 52 45 1.0 2.0 0.00 0.00 0.00 47 1022.7
20221203085038 52 68 1.0 1.0 0.00 0.00 0.00 46 1022.7
20221203084535 52 90 1.0 1.0 0.00 0.00 0.00 46 1022.8
20221203084038 52 68 1.0 1.0 0.00 0.00 0.00 46 1022.8
20221203083538 52 68 1.0 2.0 0.00 0.00 0.00 45 1022.7
20221203083035 53 45 0.0 1.0 0.00 0.00 0.00 45 1022.8
20221203082535 53 45 0.0 1.0 0.00 0.00 0.00 45 1022.8
20221203082038 53 45 1.0 1.0 0.00 0.00 0.00 45 1022.8
20221203081535 53 23 1.0 2.0 0.00 0.00 0.00 45 1022.9
20221203081038 53 23 1.0 2.0 0.00 0.00 0.00 44 1022.9
20221203080538 53 45 0.0 1.0 0.00 0.00 0.00 44 1023.0
20221203080035 53 23 0.0 2.0 0.00 0.00 0.00 44 1023.0
20221203075535 54 0 0.0 2.0 0.00 0.00 0.00 44 1022.9
20221203075038 54 68 0.0 0.0 0.00 0.00 0.00 43 1022.9
20221203074538 54 68 0.0 0.0 0.00 0.00 0.00 43 1022.9
20221203074036 54 23 1.0 2.0 0.00 0.00 0.00 43 1023.0
20221203073538 54 45 1.0 2.0 0.00 0.00 0.00 43 1023.3
20221203073035 54 23 1.0 2.0 0.00 0.00 0.00 43 1023.3
20221203072535 55 90 1.0 1.0 0.00 0.00 0.00 43 1023.4
20221203072035 55 68 1.0 1.0 0.00 0.00 0.00 43 1023.4
20221203071538 55 68 1.0 2.0 0.00 0.00 0.00 43 1023.2
20221203071038 55 68 1.0 2.0 0.00 0.00 0.00 43 1023.2
20221203070538 55 68 1.0 2.0 0.00 0.00 0.00 43 1023.2
20221203070035 55 45 1.0 2.0 0.00 0.00 0.00 43 1023.2
20221203065535 55 68 2.0 2.0 0.00 0.00 0.00 43 1023.3
20221203065038 55 68 1.0 3.0 0.00 0.00 0.00 43 1023.3
20221203064538 55 68 1.0 3.0 0.00 0.00 0.00 43 1023.4
20221203064038 55 45 1.0 2.0 0.00 0.00 0.00 43 1023.4
20221203063535 55 23 1.0 1.0 0.00 0.00 0.00 43 1023.6
20221203063038 55 45 1.0 2.0 0.00 0.00 0.00 42 1023.6
20221203062535 55 23 1.0 2.0 0.00 0.00 0.00 42 1023.6
20221203062038 55 23 1.0 2.0 0.00 0.00 0.00 42 1023.7
20221203061538 55 45 1.0 2.0 0.00 0.00 0.00 42 1023.7
20221203061035 56 68 1.0 2.0 0.00 0.00 0.00 42 1023.7
20221203060538 56 68 1.0 2.0 0.00 0.00 0.00 42 1023.7
20221203060038 56 68 1.0 2.0 0.00 0.00 0.00 42 1023.7
20221203055538 56 45 1.0 2.0 0.00 0.00 0.00 42 1023.8
20221203055038 56 23 1.0 3.0 0.00 0.00 0.00 42 1023.8
20221203054535 56 45 1.0 2.0 0.00 0.00 0.00 42 1023.8
20221203054038 56 45 1.0 3.0 0.00 0.00 0.00 42 1023.8
20221203053536 56 203 1.0 2.0 0.00 0.00 0.00 43 1023.8
20221203053038 56 45 1.0 2.0 0.00 0.00 0.00 44 1023.8
20221203052538 57 68 1.0 2.0 0.00 0.00 0.00 44 1023.8
20221203052038 57 45 1.0 2.0 0.00 0.00 0.00 44 1023.8
20221203051535 57 68 1.0 2.0 0.00 0.00 0.00 44 1024.0
20221203051035 57 68 1.0 1.0 0.00 0.00 0.00 44 1024.0
20221203050536 58 68 1.0 2.0 0.00 0.00 0.00 44 1024.0
20221203050035 58 68 1.0 1.0 0.00 0.00 0.00 44 1024.1
20221203045538 58 68 1.0 1.0 0.00 0.00 0.00 43 1023.7
20221203045038 58 90 1.0 2.0 0.00 0.00 0.00 43 1023.7
20221203044535 58 68 1.0 2.0 0.00 0.00 0.00 43 1023.7
20221203044038 58 68 2.0 2.0 0.00 0.00 0.00 43 1023.7
20221203043535 58 68 2.0 2.0 0.00 0.00 0.00 42 1023.9
20221203043036 58 68 2.0 2.0 0.00 0.00 0.00 42 1023.9
20221203042538 58 90 2.0 3.0 0.00 0.00 0.00 42 1023.9
20221203042038 58 68 2.0 2.0 0.00 0.00 0.00 41 1023.9
20221203041535 58 68 1.0 2.0 0.00 0.00 0.00 40 1023.9
20221203041035 58 68 1.0 2.0 0.00 0.00 0.00 39 1023.9
20221203040535 58 68 2.0 2.0 0.00 0.00 0.00 39 1023.9
20221203040038 58 68 2.0 2.0 0.00 0.00 0.00 39 1023.9
20221203035538 58 68 3.0 4.0 0.00 0.00 0.00 40 1023.7
20221203035038 58 113 3.0 4.0 0.00 0.00 0.00 40 1023.7
20221203034538 58 68 3.0 4.0 0.00 0.00 0.00 40 1023.7
20221203034035 58 90 2.0 4.0 0.00 0.00 0.00 40 1023.7
20221203033535 58 68 2.0 3.0 0.00 0.00 0.00 40 1023.5
20221203033038 58 68 2.0 3.0 0.00 0.00 0.00 40 1023.5
20221203032538 58 90 2.0 2.0 0.00 0.00 0.00 40 1023.5
20221203032038 58 68 2.0 2.0 0.00 0.00 0.00 40 1023.5
20221203031538 58 90 2.0 2.0 0.00 0.00 0.00 40 1023.3
20221203031035 58 45 2.0 2.0 0.00 0.00 0.00 40 1023.3
20221203030535 58 113 1.0 2.0 0.00 0.00 0.00 40 1023.3
20221203030035 58 45 0.0 2.0 0.00 0.00 0.00 40 1023.3
20221203025535 59 113 0.0 1.0 0.00 0.00 0.00 40 1023.0
20221203025036 59 338 0.0 1.0 0.00 0.00 0.00 40 1023.0
20221203024535 59 315 1.0 1.0 0.00 0.00 0.00 40 1023.0
20221203024038 60 315 1.0 1.0 0.00 0.00 0.00 40 1023.0
20221203023535 60 293 2.0 2.0 0.00 0.00 0.00 40 1023.0
20221203023035 60 270 2.0 3.0 0.00 0.00 0.00 40 1023.0
20221203022536 60 270 2.0 2.0 0.00 0.00 0.00 40 1023.0
20221203022035 61 315 1.0 3.0 0.00 0.00 0.00 40 1023.0
20221203021538 61 315 1.0 2.0 0.00 0.00 0.00 40 1022.8
20221203021038 61 315 1.0 2.0 0.00 0.00 0.00 40 1022.8
20221203020538 61 293 1.0 2.0 0.00 0.00 0.00 40 1022.8
20221203020035 62 315 1.0 1.0 0.00 0.00 0.00 39 1022.8
20221203015536 62 293 1.0 2.0 0.00 0.00 0.00 39 1022.9
20221203015036 62 270 2.0 2.0 0.00 0.00 0.00 39 1022.9
20221203014538 62 338 2.0 3.0 0.00 0.00 0.00 39 1022.9
20221203014038 62 293 2.0 3.0 0.00 0.00 0.00 39 1022.9
20221203013535 62 248 2.0 3.0 0.00 0.00 0.00 39 1022.5
20221203013038 63 315 1.0 2.0 0.00 0.00 0.00 38 1022.5
20221203012535 63 338 1.0 2.0 0.00 0.00 0.00 38 1022.5
20221203012039 63 23 0.0 1.0 0.00 0.00 0.00 37 1022.5
20221203011535 64 315 0.0 2.0 0.00 0.00 0.00 37 1022.4
20221203011035 64 225 1.0 1.0 0.00 0.00 0.00 36 1022.4
20221203010535 64 225 1.0 2.0 0.00 0.00 0.00 36 1022.4
20221203010038 64 248 1.0 2.0 0.00 0.00 0.00 36 1022.4
20221203005535 65 248 1.0 3.0 0.00 0.00 0.00 35 1022.4
20221203005036 65 270 1.0 3.0 0.00 0.00 0.00 34 1022.4
20221203004538 65 293 1.0 3.0 0.00 0.00 0.00 34 1022.4
20221203004038 66 248 0.0 2.0 0.00 0.00 0.00 33 1022.4
20221203003535 66 203 0.0 2.0 0.00 0.00 0.00 33 1021.9
20221203003038 66 225 1.0 2.0 0.00 0.00 0.00 32 1021.9
20221203002535 67 248 1.0 3.0 0.00 0.00 0.00 32 1021.9
20221203002036 67 293 1.0 3.0 0.00 0.00 0.00 31 1021.9
20221203001535 68 248 2.0 2.0 0.00 0.00 0.00 31 1021.9
20221203001035 68 293 2.0 3.0 0.00 0.00 0.00 31 1021.9
20221203000535 69 315 2.0 3.0 0.00 0.00 0.00 30 1021.9
20221203000035 69 338 3.0 3.0 0.00 0.00 0.00 30 1021.9
20221202235538 69 225 3.0 4.0 0.00 0.00 0.00 30 1021.8
20221202235036 70 293 3.0 3.0 0.00 0.00 0.00 29 1021.8
20221202234538 70 270 4.0 5.0 0.00 0.00 0.00 29 1021.8
20221202234035 70 248 3.0 5.0 0.00 0.00 0.00 29 1021.8
20221202233538 70 270 4.0 5.0 0.00 0.00 0.00 29 1021.7
20221202233038 71 270 4.0 6.0 0.00 0.00 0.00 28 1021.7
20221202232535 71 293 4.0 6.0 0.00 0.00 0.00 28 1021.7
20221202232035 71 315 3.0 6.0 0.00 0.00 0.00 28 1021.7
20221202231535 71 293 3.0 6.0 0.00 0.00 0.00 28 1021.4
20221202231035 72 270 3.0 3.0 0.00 0.00 0.00 27 1021.4
20221202230538 72 338 4.0 7.0 0.00 0.00 0.00 27 1021.3
20221202230035 72 315 4.0 6.0 0.00 0.00 0.00 26 1021.3
20221202225535 72 315 3.0 6.0 0.00 0.00 0.00 26 1021.7
20221202225036 72 293 3.0 5.0 0.00 0.00 0.00 26 1021.7
20221202224538 72 270 4.0 6.0 0.00 0.00 0.00 26 1021.7
20221202224035 72 293 4.0 5.0 0.00 0.00 0.00 26 1021.7
20221202223535 72 270 4.0 5.0 0.00 0.00 0.00 26 1021.5
20221202223038 73 293 4.0 5.0 0.00 0.00 0.00 26 1021.4
20221202222535 73 315 4.0 8.0 0.00 0.00 0.00 25 1021.4
20221202222036 73 293 4.0 5.0 0.00 0.00 0.00 25 1021.4
20221202221538 73 293 4.0 6.0 0.00 0.00 0.00 25 1021.2
20221202221035 73 338 4.0 6.0 0.00 0.00 0.00 25 1021.2
20221202220535 73 315 4.0 8.0 0.00 0.00 0.00 25 1021.2
20221202220038 73 315 4.0 5.0 0.00 0.00 0.00 24 1021.2
20221202215539 73 270 4.0 7.0 0.00 0.00 0.00 24 1021.0
20221202215038 73 293 4.0 7.0 0.00 0.00 0.00 24 1021.0
20221202214535 74 270 4.0 6.0 0.00 0.00 0.00 24 1021.0
20221202214038 74 338 3.0 5.0 0.00 0.00 0.00 24 1021.0
20221202213535 74 315 3.0 5.0 0.00 0.00 0.00 24 1021.2
20221202213038 74 293 3.0 3.0 0.00 0.00 0.00 25 1021.2
20221202212538 74 270 3.0 5.0 0.00 0.00 0.00 25 1021.2
20221202212036 74 338 2.0 5.0 0.00 0.00 0.00 24 1021.2
20221202211538 74 23 3.0 4.0 0.00 0.00 0.00 25 1021.5
20221202211035 74 315 4.0 7.0 0.00 0.00 0.00 25 1021.5
20221202210538 74 225 3.0 7.0 0.00 0.00 0.00 25 1021.5
20221202210038 73 293 4.0 6.0 0.00 0.00 0.00 25 1021.4
20221202205536 74 270 4.0 7.0 0.00 0.00 0.00 25 1021.3
20221202205038 74 270 3.0 5.0 0.00 0.00 0.00 26 1021.3
20221202204535 74 225 3.0 5.0 0.00 0.00 0.00 26 1021.3
20221202204038 74 315 3.0 5.0 0.00 0.00 0.00 26 1021.3
20221202203538 74 315 3.0 5.0 0.00 0.00 0.00 26 1021.1
20221202203035 74 315 4.0 6.0 0.00 0.00 0.00 27 1021.1
20221202202535 74 113 4.0 7.0 0.00 0.00 0.00 28 1021.0
20221202202039 74 225 4.0 6.0 0.00 0.00 0.00 28 1021.0
20221202201538 74 338 4.0 6.0 0.00 0.00 0.00 28 1021.2
20221202201035 74 293 4.0 7.0 0.00 0.00 0.00 28 1021.2
20221202200538 75 270 3.0 7.0 0.00 0.00 0.00 27 1021.2
20221202200035 75 248 2.0 3.0 0.00 0.00 0.00 27 1021.2
20221202195535 76 315 2.0 4.0 0.00 0.00 0.00 27 1021.6
20221202195036 76 45 2.0 3.0 0.00 0.00 0.00 27 1021.6
20221202194535 76 203 2.0 3.0 0.00 0.00 0.00 28 1021.6
20221202194035 76 270 1.0 5.0 0.00 0.00 0.00 28 1021.6